| time (UTC) | temp F | wind direction | speed MPH | gust MPH | rain 1hr in | rain 24hr in | rain mn in | humidity % | barometer mb |
| 20260902214604 | 87 | 239 | 0.0 | 0.0 | 0.00 | 0.00 | 0.00 | 56 | 1019.0 |
| 20260902213031 | 88 | 239 | 0.0 | 0.0 | 0.00 | 0.00 | 0.00 | 56 | 1019.1 |
| 20260902211508 | 88 | 239 | 0.0 | 1.0 | 0.00 | 0.00 | 0.00 | 55 | 1019.1 |
| 20260902210006 | 89 | 248 | 0.0 | 2.0 | 0.00 | 0.00 | 0.00 | 55 | 1019.1 |
| 20260902204503 | 89 | 246 | 0.0 | 2.0 | 0.00 | 0.00 | 0.00 | 54 | 1019.1 |
| 20260902203117 | 90 | 232 | 0.0 | 0.0 | 0.00 | 0.00 | 0.00 | 52 | 1018.9 |
| 20260902201633 | 91 | 232 | 0.0 | 1.0 | 0.00 | 0.00 | 0.00 | 51 | 1018.7 |
| 20260902200110 | 91 | 246 | 0.0 | 1.0 | 0.00 | 0.00 | 0.00 | 50 | 1018.5 |
| 20260902194619 | 92 | 229 | 0.0 | 2.0 | 0.00 | 0.00 | 0.00 | 49 | 1018.3 |
| 20260902193113 | 93 | 243 | 0.0 | 3.0 | 0.00 | 0.00 | 0.00 | 47 | 1018.1 |
| 20260902191613 | 94 | 235 | 0.0 | 3.0 | 0.00 | 0.00 | 0.00 | 45 | 1017.9 |
| 20260902190114 | 95 | 231 | 0.0 | 3.0 | 0.00 | 0.00 | 0.00 | 44 | 1017.7 |
| 20260902184612 | 96 | 226 | 0.0 | 3.0 | 0.00 | 0.00 | 0.00 | 42 | 1017.6 |
| 20260902183108 | 97 | 298 | 0.0 | 3.0 | 0.00 | 0.00 | 0.00 | 40 | 1017.5 |
| 20260902181614 | 98 | 256 | 0.0 | 4.0 | 0.00 | 0.00 | 0.00 | 36 | 1017.5 |
| 20260902180100 | 100 | 67 | 0.0 | 5.0 | 0.00 | 0.00 | 0.00 | 33 | 1017.3 |
| 20260902174600 | 102 | 291 | 0.0 | 3.0 | 0.00 | 0.00 | 0.00 | 32 | 1017.3 |
| 20260902173051 | 104 | 240 | 0.0 | 1.0 | 0.00 | 0.00 | 0.00 | 27 | 1017.2 |
| 20260902171550 | 104 | 231 | 0.0 | 5.0 | 0.00 | 0.00 | 0.00 | 27 | 1017.1 |
| 20260902170042 | 104 | 243 | 0.0 | 4.0 | 0.00 | 0.00 | 0.00 | 25 | 1017.2 |
| 20260902164549 | 104 | 236 | 0.0 | 5.0 | 0.00 | 0.00 | 0.00 | 26 | 1017.2 |
| 20260902163037 | 104 | 231 | 0.0 | 5.0 | 0.00 | 0.00 | 0.00 | 25 | 1017.2 |
| 20260902161522 | 104 | 354 | 0.0 | 4.0 | 0.00 | 0.00 | 0.00 | 26 | 1017.2 |
| 20260902160014 | 104 | 326 | 0.0 | 5.0 | 0.00 | 0.00 | 0.00 | 26 | 1017.2 |
| 20260902154543 | 103 | 231 | 0.0 | 3.0 | 0.00 | 0.00 | 0.00 | 26 | 1017.2 |
| 20260902153006 | 104 | 356 | 0.0 | 3.0 | 0.00 | 0.00 | 0.00 | 26 | 1017.2 |
| 20260902151616 | 105 | 199 | 0.0 | 2.0 | 0.00 | 0.00 | 0.00 | 26 | 1017.2 |
| 20260902150109 | 106 | 356 | 0.0 | 1.0 | 0.00 | 0.00 | 0.00 | 26 | 1017.3 |
| 20260902144615 | 104 | 205 | 0.0 | 3.0 | 0.00 | 0.00 | 0.00 | 27 | 1017.4 |
| 20260902143114 | 103 | 221 | 0.0 | 1.0 | 0.00 | 0.00 | 0.00 | 29 | 1017.5 |
| 20260902141608 | 102 | 354 | 0.0 | 2.0 | 0.00 | 0.00 | 0.00 | 31 | 1017.6 |
| 20260902140106 | 100 | 323 | 1.0 | 5.0 | 0.00 | 0.00 | 0.00 | 33 | 1017.9 |
| 20260902134552 | 100 | 352 | 1.0 | 4.0 | 0.00 | 0.00 | 0.00 | 34 | 1017.9 |
| 20260902133055 | 99 | 219 | 1.0 | 4.0 | 0.00 | 0.00 | 0.00 | 34 | 1017.9 |
| 20260902131548 | 98 | 51 | 0.0 | 4.0 | 0.00 | 0.00 | 0.00 | 37 | 1018.1 |
| 20260902130030 | 97 | 73 | 1.0 | 7.0 | 0.00 | 0.00 | 0.00 | 38 | 1018.2 |
| 20260902124504 | 97 | 82 | 1.0 | 9.0 | 0.00 | 0.00 | 0.00 | 40 | 1018.2 |
| 20260902123114 | 96 | 97 | 2.0 | 10.0 | 0.00 | 0.00 | 0.00 | 41 | 1018.3 |
| 20260902121612 | 94 | 55 | 2.0 | 14.0 | 0.00 | 0.00 | 0.00 | 44 | 1018.5 |
| 20260902120105 | 94 | 84 | 3.0 | 8.0 | 0.00 | 0.00 | 0.00 | 45 | 1018.6 |
| 20260902114609 | 93 | 112 | 0.0 | 6.0 | 0.00 | 0.00 | 0.00 | 45 | 1018.7 |
| 20260902113108 | 92 | 22 | 3.0 | 9.0 | 0.00 | 0.00 | 0.00 | 48 | 1018.9 |
| 20260902111607 | 91 | 80 | 2.0 | 8.0 | 0.00 | 0.00 | 0.00 | 49 | 1019.0 |
| 20260902110051 | 90 | 80 | 2.0 | 9.0 | 0.00 | 0.00 | 0.00 | 51 | 1019.2 |
| 20260902104608 | 89 | 68 | 3.0 | 9.0 | 0.00 | 0.00 | 0.00 | 52 | 1019.3 |
| 20260902103019 | 88 | 53 | 3.0 | 10.0 | 0.00 | 0.00 | 0.00 | 54 | 1019.6 |
| 20260902101550 | 87 | 105 | 3.0 | 7.0 | 0.00 | 0.00 | 0.00 | 56 | 1019.7 |
| 20260902100010 | 86 | 20 | 3.0 | 9.0 | 0.00 | 0.00 | 0.00 | 58 | 1019.6 |
| 20260902094535 | 85 | 70 | 3.0 | 10.0 | 0.00 | 0.00 | 0.00 | 58 | 1019.6 |
| 20260902093004 | 84 | 32 | 2.0 | 11.0 | 0.00 | 0.00 | 0.00 | 60 | 1019.6 |
| 20260902091537 | 83 | 16 | 3.0 | 11.0 | 0.00 | 0.00 | 0.00 | 61 | 1019.6 |
| 20260902090117 | 82 | 41 | 2.0 | 7.0 | 0.00 | 0.00 | 0.00 | 62 | 1019.5 |
| 20260902084616 | 81 | 78 | 2.0 | 7.0 | 0.00 | 0.00 | 0.00 | 64 | 1019.5 |
| 20260902083118 | 80 | 44 | 2.0 | 6.0 | 0.00 | 0.00 | 0.00 | 65 | 1019.5 |
| 20260902081602 | 79 | 39 | 2.0 | 5.0 | 0.00 | 0.00 | 0.00 | 64 | 1019.4 |
| 20260902074630 | 78 | 55 | 0.0 | 5.0 | 0.00 | 0.00 | 0.00 | 63 | 1019.4 |
| 20260902073105 | 76 | 75 | 0.0 | 4.0 | 0.00 | 0.00 | 0.00 | 63 | 1019.4 |
| 20260902071601 | 75 | 49 | 0.0 | 3.0 | 0.00 | 0.00 | 0.00 | 67 | 1019.3 |
| 20260902064602 | 73 | 78 | 0.0 | 1.0 | 0.00 | 0.00 | 0.00 | 68 | 1019.1 |
| 20260902063101 | 73 | 79 | 0.0 | 1.0 | 0.00 | 0.00 | 0.00 | 68 | 1019.2 |
| 20260902061605 | 72 | 86 | 0.0 | 1.0 | 0.00 | 0.00 | 0.00 | 65 | 1019.1 |
| 20260902060105 | 72 | 54 | 0.0 | 1.0 | 0.00 | 0.00 | 0.00 | 65 | 1019.2 |
| 20260902054607 | 73 | 24 | 0.0 | 1.0 | 0.00 | 0.00 | 0.00 | 66 | 1019.1 |
| 20260902053105 | 73 | 12 | 0.0 | 1.0 | 0.00 | 0.00 | 0.00 | 66 | 1019.0 |
| 20260902051604 | 74 | 13 | 0.0 | 1.0 | 0.00 | 0.00 | 0.00 | 66 | 1019.1 |
| 20260902050059 | 74 | 184 | 0.0 | 1.0 | 0.00 | 0.00 | 0.00 | 67 | 1019.0 |
| 20260902044559 | 74 | 184 | 0.0 | 1.0 | 0.00 | 0.00 | 0.00 | 65 | 1019.0 |
| 20260902043047 | 74 | 189 | 0.0 | 0.0 | 0.00 | 0.00 | 0.00 | 65 | 1018.9 |
| 20260902041542 | 75 | 188 | 0.0 | 1.0 | 0.00 | 0.00 | 0.00 | 66 | 1018.8 |
| 20260902040009 | 75 | 188 | 0.0 | 0.0 | 0.00 | 0.00 | 0.00 | 67 | 1018.8 |
| 20260902034534 | 75 | 188 | 0.0 | 1.0 | 0.00 | 0.00 | 0.00 | 65 | 1018.6 |
| 20260902033031 | 76 | 193 | 0.0 | 0.0 | 0.00 | 0.00 | 0.00 | 63 | 1018.7 |
| 20260902031538 | 76 | 193 | 0.0 | 0.0 | 0.00 | 0.00 | 0.00 | 63 | 1018.8 |
| 20260902030004 | 76 | 193 | 0.0 | 0.0 | 0.00 | 0.00 | 0.00 | 60 | 1018.8 |
| 20260902024617 | 76 | 193 | 0.0 | 1.0 | 0.00 | 0.00 | 0.00 | 59 | 1018.8 |
| 20260902023004 | 76 | 193 | 0.0 | 2.0 | 0.00 | 0.00 | 0.00 | 59 | 1019.0 |
| 20260902021501 | 76 | 200 | 0.0 | 4.0 | 0.00 | 0.00 | 0.00 | 58 | 1019.0 |
| 20260902020113 | 76 | 179 | 1.0 | 4.0 | 0.00 | 0.00 | 0.00 | 57 | 1019.2 |
| 20260902014612 | 75 | 211 | 1.0 | 4.0 | 0.00 | 0.00 | 0.00 | 57 | 1019.1 |
| 20260902013108 | 75 | 176 | 1.0 | 3.0 | 0.00 | 0.00 | 0.00 | 57 | 1019.2 |
| 20260902011640 | 75 | 166 | 1.0 | 3.0 | 0.00 | 0.00 | 0.00 | 56 | 1019.2 |
| 20260902004604 | 75 | 214 | 1.0 | 5.0 | 0.00 | 0.00 | 0.00 | 58 | 1019.6 |
| 20260902003108 | 76 | 160 | 2.0 | 5.0 | 0.00 | 0.00 | 0.00 | 58 | 1019.7 |
| 20260902001601 | 76 | 194 | 1.0 | 5.0 | 0.00 | 0.00 | 0.00 | 57 | 1019.7 |
| 20260902000059 | 76 | 212 | 0.0 | 3.0 | 0.00 | 0.00 | 0.00 | 57 | 1019.7 |
| 20260901234601 | 77 | 221 | 0.0 | 3.0 | 0.00 | 0.00 | 0.00 | 57 | 1019.7 |
| 20260901233049 | 77 | 238 | 0.0 | 3.0 | 0.00 | 0.00 | 0.00 | 56 | 1019.7 |
| 20260901231609 | 77 | 233 | 1.0 | 3.0 | 0.00 | 0.00 | 0.00 | 57 | 1019.7 |
| 20260901224551 | 77 | 295 | 0.0 | 5.0 | 0.00 | 0.00 | 0.00 | 60 | 1019.8 |
| 20260901223041 | 78 | 246 | 0.0 | 5.0 | 0.00 | 0.00 | 0.00 | 61 | 1020.0 |
| 20260901221606 | 79 | 250 | 1.0 | 7.0 | 0.00 | 0.00 | 0.00 | 61 | 1019.8 |
| 20260901220011 | 79 | 242 | 0.0 | 5.0 | 0.00 | 0.00 | 0.00 | 62 | 1019.6 |